User: anonymous   Login
Location: 相模原市立博物館
(35.5593°N, 139.3931°E)
Time: 14:34:44
(UTC+09:00)
Language:

DX 1 - Orbit

View from above orbital plane
View from above orbital plane
View from above satellite
View from above satellite

Ground track
Ground track

The orbit data is extracted from the following two-line orbital elements,

1 40071U 14037C   22024.70304857  .00000426  00000-0  61586-4 0  9993
2 40071  98.4274 246.1240 0009614  61.5652 298.6526 14.81632893408052
Epoch (UTC): 24 January 2022 16:52:23
Eccentricity: 0.0009614
inclination: 98.4274°
perigee height: 617 km
apogee height: 631 km
right ascension of ascending node: 246.1240°
argument of perigee: 61.5652°
revolutions per day: 14.81632893
mean anomaly at epoch: 298.6526°
orbit number at epoch: 40805

The dashed part of the orbit path shows where the satellite is in the earth's shadow,  

DLR